Location: Augsburg
(48.3836°N, 10.8929°E)
Time: 02:51:10
(UTC+01:00)

ISS - Pass Details

Date: 05 January 2018
Orbit: 402 x 407 km, 51.6° (Epoch: 23 January)

Event Time Altitude Azimuth Distance (km) Brightness Sun altitude
Exits shadow 06:02:54 47° 10° (N) 547 -3.3 -19.7°
Drops below altitude 10° 06:05:52 10° 69° (ENE) 1,472 -0.2 -19.3°
Sets 06:08:00 0° 75° (ENE) 2,334 1.1 -18.9°
